Wind_Speed
13 16 15 13 5 14 15 14 15 19 18 22 20 32 25 28 31 33 39 42 30 14 6 14 19 15 20 15 14 19 12 1 3 6 5 11 5 16 20 22 28 29 27 22 18 34 33 26 23
16 14 17 15 9 12 5 6 15 22 19 20 27 38 24 29 30 35 40 40 24 9 9 20 12 4 18 20 13 9 13 7 7 4 7 1 10 12 18 23 28 30 23 12 19 23 29 28 28
16 15 13 8 12 9 7 11 12 11 15 22 27 28 24 29 30 34 39 37 24 8 15 15 19 6 19 21 18 13 8 11 9 8 5 5 10 13 16 22 29 28 16 15 20 18 23 28 27
20 19 18 12 12 14 16 19 13 14 15 18 17 23 27 30 30 33 37 35 23 8 13 13 19 9 8 6 7 12 15 10 5 2 3 4 7 10 14 24 24 28 23 21 22 18 22 30 27
17 20 19 16 15 18 17 10 12 14 14 13 17 26 28 31 31 32 35 34 25 17 7 11 6 17 7 8 9 6 5 13 5 1 3 7 7 9 18 21 20 18 17 17 18 15 22 34 25
15 16 15 18 21 19 18 19 14 16 4 23 22 23 25 29 29 28 33 33 26 17 10 6 4 10 8 11 9 8 7 7 5 5 5 4 7 11 16 22 17 20 7 10 13 15 20 28 26
19 17 19 19 20 19 17 15 15 16 19 22 24 21 27 28 26 25 30 30 21 15 10 7 4 4 17 17 14 12 8 9 6 3 1 1 3 6 14 21 18 16 11 11 15 16 27 26 21
19 18 19 20 19 19 19 18 17 18 21 22 19 21 24 24 24 22 26 28 22 15 5 8 4 7 19 10 13 9 7 9 7 7 7 4 1 5 15 17 17 12 14 11 15 17 22 24 23
21 21 20 21 20 20 21 21 23 22 22 22 20 20 22 25 24 19 21 25 20 17 5 6 5 9 18 14 12 14 7 6 7 5 6 6 4 5 13 15 10 11 13 16 17 18 24 27 20
24 25 26 25 25 26 26 27 29 29 27 26 30 24 24 27 22 16 17 20 19 15 8 3 1 9 13 12 11 13 11 8 8 7 6 2 2 1 10 9 14 11 12 8 3 19 25 25 20
28 29 31 31 32 32 32 33 34 35 36 32 29 24 25 25 15 14 15 16 17 12 9 3 6 6 7 13 11 8 4 5 5 2 4 7 6 1 8 10 17 9 6 6 9 21 20 21 20
35 34 35 36 37 38 40 38 38 37 36 34 32 31 29 20 15 15 14 13 15 11 6 2 4 8 9 12 12 8 9 8 9 7 6 8 9 9 10 13 8 7 1 3 13 18 18 15 22
41 40 40 41 42 43 44 44 42 41 41 40 36 34 31 23 19 19 15 12 12 12 7 4 4 8 12 13 14 16 8 12 10 6 6 7 7 11 14 11 2 10 10 10 13 14 16 18 21
44 45 45 45 46 47 48 48 47 46 47 45 42 39 33 30 26 20 19 16 10 10 7 4 5 6 8 18 20 14 12 8 8 7 5 6 8 11 13 9 5 8 8 7 8 11 18 18 18
48 47 47 47 48 49 52 53 52 50 48 46 43 39 33 29 26 23 21 20 14 9 6 4 5 3 3 9 17 18 16 16 9 9 11 7 6 6 12 6 3 10 7 6 4 6 17 20 17
48 48 48 49 48 48 48 48 48 47 46 43 42 38 35 35 33 28 23 23 18 14 8 5 7 5 4 2 5 12 13 17 12 13 16 11 7 13 14 9 10 16 9 6 6 10 11 18 17
44 41 39 37 35 36 37 36 38 37 37 36 36 35 33 32 31 29 26 28 23 17 12 10 7 9 10 2 3 7 9 11 11 16 16 12 17 17 15 8 12 13 11 7 10 9 14 16 14
30 30 30 30 29 29 31 30 32 33 33 34 32 32 35 37 36 33 31 30 26 20 16 15 9 9 11 7 7 6 6 4 3 3 7 10 11 11 14 9 8 12 13 8 8 10 12 11 10
17 16 17 16 15 17 23 24 26 27 29 31 31 29 29 32 34 36 34 33 31 24 22 19 13 9 14 12 12 11 7 4 5 0 5 4 5 0 12 11 9 12 12 11 9 6 7 9 14
13 14 14 16 16 16 17 16 16 19 23 26 28 28 27 26 29 33 36 36 35 26 23 23 17 10 15 14 14 12 7 6 7 8 11 11 6 6 6 19 22 15 11 12 8 5 3 4 13
14 15 14 16 18 20 18 15 18 17 15 21 24 26 28 27 28 32 38 39 39 33 24 24 21 14 16 17 16 14 11 6 7 10 10 9 6 7 5 6 17 21 15 11 7 6 2 4 6
14 17 15 16 17 21 23 21 18 20 20 19 19 24 25 27 25 31 30 40 38 37 37 29 27 21 18 23 20 17 11 7 4 5 6 7 6 9 5 6 13 17 18 14 12 8 5 7 2
15 17 18 17 16 16 23 21 23 22 21 20 21 22 24 27 30 31 34 36 41 39 36 34 28 27 21 28 27 22 16 9 7 6 7 5 9 11 6 5 6 18 18 21 14 10 8 5 3
19 20 19 17 19 18 22 22 20 23 26 25 23 24 25 24 28 30 33 36 38 36 37 42 38 32 29 30 31 27 24 16 13 9 5 3 6 11 4 6 6 3 16 20 20 16 12 9 5
23 23 22 21 20 19 23 26 23 28 28 27 24 20 22 25 24 27 31 35 39 43 41 38 39 40 35 34 35 32 27 23 19 14 9 8 4 9 4 3 6 4 4 19 24 22 17 15 11
23 24 25 26 25 25 26 28 25 26 31 32 32 27 23 20 27 27 26 36 34 37 42 41 39 39 43 38 36 34 32 29 24 21 14 9 10 10 6 5 5 5 7 4 20 23 20 18 16
28 28 30 31 30 32 30 30 30 27 29 34 36 35 30 27 23 25 24 32 39 41 40 36 37 43 46 43 42 38 35 32 30 25 19 14 11 11 9 6 7 6 6 6 4 16 19 18 16
34 35 34 34 34 33 32 31 31 28 31 31 34 38 32 30 26 25 26 26 35 41 46 44 38 36 48 49 46 44 39 35 34 31 25 21 18 15 12 10 6 5 5 7 5 2 7 11 13
38 40 40 38 35 33 33 33 30 30 30 30 32 37 36 32 28 27 29 24 30 42 43 45 48 42 39 46 50 48 46 42 38 36 31 29 26 22 18 12 11 4 4 5 3 4 6 9 12
46 44 45 42 37 32 31 40 37 33 31 31 32 34 37 35 34 30 30 27 25 41 51 43 41 42 43 40 45 50 50 49 45 42 38 36 32 28 24 19 14 11 5 3 2 5 7 14 15
Wind_Direction
207 198 197 187 190 302 296 288 298 315 327 327 316 332 330 337 337 334 337 342 342 328 245 152 172 194 205 212 233 223 220 320 282 274 318 321 301 337 347 353 2 1 359 9 29 36 30 31 27
213 211 209 228 259 259 283 290 297 317 325 330 328 323 324 334 339 339 344 355 0 10 122 138 157 200 202 208 208 193 227 251 251 286 340 358 332 345 353 355 9 360 359 40 41 35 32 22 30
215 224 231 236 235 280 291 274 314 320 338 337 326 322 335 337 342 343 349 6 21 81 106 137 154 171 213 210 227 202 179 213 244 278 309 9 3 3 356 18 20 7 40 54 40 38 35 30 27
222 233 232 255 276 271 277 276 317 310 322 337 322 336 341 339 345 346 353 10 30 98 129 130 178 173 185 165 204 229 220 219 246 251 307 15 23 1 23 30 30 49 66 44 38 30 22 22 22
225 226 226 252 263 278 296 280 290 308 331 322 303 319 325 335 345 348 357 8 32 52 120 193 171 206 207 222 216 232 250 243 264 124 282 51 38 34 30 37 28 42 44 46 38 23 20 23 32
230 232 244 257 277 283 285 279 279 286 278 318 310 318 322 330 341 348 358 5 21 43 64 117 125 185 205 177 174 165 135 140 165 222 171 79 36 39 33 39 32 47 67 48 22 23 13 22 44
245 255 263 262 267 274 279 287 291 291 281 296 305 305 311 325 342 346 355 8 13 25 61 74 28 102 150 134 132 127 120 146 161 167 209 10 54 27 46 36 31 46 26 33 37 39 27 25 25
241 243 254 260 262 268 271 277 275 268 283 286 297 296 303 321 339 340 354 5 16 21 90 60 64 147 168 154 155 138 117 167 185 176 180 279 31 44 43 38 51 22 49 41 18 6 14 16 0
235 237 248 262 263 266 271 277 283 285 293 288 284 312 318 321 329 333 349 0 13 21 15 64 77 148 170 196 179 196 203 214 222 251 265 286 262 83 43 43 33 14 23 24 15 27 18 22 22
250 254 258 259 265 270 277 283 288 286 288 285 282 291 311 310 316 324 340 356 3 22 17 148 67 156 178 200 205 201 215 252 266 277 250 271 230 97 3 30 354 334 337 38 79 17 17 14 22
258 263 266 266 268 273 274 282 286 288 289 289 285 282 304 304 298 311 325 345 354 11 21 150 190 184 189 190 200 206 204 249 249 249 273 315 237 314 343 337 332 353 338 79 33 28 25 18 37
267 271 272 272 273 275 277 278 283 282 283 284 283 277 292 284 287 293 304 325 339 351 3 9 220 211 195 202 191 216 247 197 204 233 266 310 322 348 318 311 343 319 198 20 2 33 31 20 18
269 272 273 274 274 274 276 278 280 278 280 281 276 272 280 263 284 276 284 295 322 339 337 335 273 206 184 178 194 231 205 217 231 265 274 290 345 350 317 314 256 284 296 308 16 30 35 21 2
272 273 275 276 277 277 277 277 277 277 279 278 277 276 274 258 265 271 276 272 281 314 323 312 341 250 241 219 216 217 246 226 237 266 251 297 320 315 293 322 277 284 285 333 12 35 24 21 14
274 276 277 279 279 279 280 279 277 276 275 274 272 270 263 253 252 262 261 266 268 273 305 290 266 315 281 245 232 234 242 250 239 239 253 280 265 327 286 312 200 259 281 323 2 9 22 28 22
274 275 277 278 278 277 277 276 277 276 274 271 267 263 261 254 252 260 250 249 255 260 270 281 239 235 237 264 215 204 219 237 239 277 277 275 284 285 292 262 186 250 300 327 296 306 328 341 19
276 278 280 281 282 281 279 277 277 277 275 270 267 262 253 251 258 259 256 246 245 250 252 271 255 235 208 233 202 166 195 226 253 272 289 280 263 271 261 237 211 246 269 297 305 340 331 332 346
278 282 282 284 286 285 280 281 280 281 280 276 269 263 258 250 252 254 251 247 245 242 243 257 257 230 205 211 221 202 208 213 226 349 347 304 282 252 220 242 234 227 261 279 292 329 347 350 11
279 291 301 304 308 302 290 282 276 278 281 279 277 274 265 260 252 245 239 239 237 242 244 244 251 230 198 190 207 176 167 165 174 214 4 320 315 19 224 237 250 231 255 270 288 347 5 29 33
290 289 297 300 305 300 302 316 304 280 274 272 275 275 272 263 251 243 238 234 230 238 244 232 238 225 203 190 190 182 179 207 259 277 293 326 292 314 263 243 240 237 239 256 276 264 315 351 45
299 301 308 300 304 300 304 313 307 312 303 279 269 265 264 264 247 241 238 238 236 236 233 233 231 229 216 197 189 191 204 247 261 277 290 316 309 314 333 254 221 228 218 237 239 232 259 294 43
299 298 297 299 303 307 310 305 303 300 304 300 298 277 270 264 258 246 246 235 239 240 241 234 230 231 215 201 201 208 214 256 263 282 288 329 337 343 350 294 222 217 220 218 218 209 222 241 292
292 292 294 293 295 297 295 298 303 301 296 292 293 291 278 264 256 251 247 240 235 241 241 231 228 228 225 212 214 219 226 244 252 263 275 320 327 343 356 354 227 209 215 223 224 240 262 282 355
293 290 291 292 292 295 290 293 296 289 289 295 298 297 291 281 259 252 247 241 240 238 238 236 234 234 225 221 225 230 238 245 254 237 250 320 341 353 359 46 77 198 223 228 231 231 234 243 257
303 306 306 297 292 290 288 288 284 287 291 292 289 287 285 286 278 254 249 246 240 240 237 236 238 238 230 228 229 233 240 242 249 228 223 285 313 327 337 14 57 64 297 229 226 226 229 230 247
303 306 303 298 295 294 292 289 283 288 289 289 287 286 280 266 269 276 247 244 241 237 238 240 243 238 235 234 233 238 235 241 241 229 229 231 276 298 324 343 309 330 12 255 218 220 222 233 241
300 301 299 297 293 289 288 288 285 279 280 287 288 286 283 279 268 256 265 242 238 236 230 235 238 234 233 231 233 234 238 237 234 227 231 228 255 276 288 328 20 23 40 47 178 215 222 229 239
297 298 297 296 293 288 285 284 282 283 283 279 282 285 283 280 274 264 252 249 242 237 235 232 230 230 231 228 229 233 236 236 234 231 233 240 249 262 272 276 318 18 38 57 41 55 218 228 235
295 297 296 294 289 287 286 281 277 281 282 281 281 282 282 279 273 263 262 249 244 236 234 234 237 233 234 229 229 231 232 235 232 231 234 244 250 252 258 272 277 306 16 18 39 331 268 244 239
297 296 294 292 288 285 282 284 282 279 277 276 273 276 276 275 272 269 264 261 249 236 232 232 229 230 236 233 229 231 233 234 234 234 239 244 249 252 254 258 269 269 266 320 302 253 253 268 265
Height
10995 10997 10999 11001 11002 11001 11001 11001 10999 10999 10999 10999 10996 10993 10990 10986 10982 10976 10968 10958 10948 10941 10940 10947 10953 10959 10962 10964 10964 10969 10972 10976 10977 10979 10980 10978 10977 10976 10975 10971 10966 10963 10957 10953 10950 10946 10943 10939 10936
10996 10998 10999 11001 11002 10999 11000 11001 11000 10998 10997 10997 10994 10992 10988 10985 10980 10974 10967 10956 10947 10942 10943 10948 10956 10961 10963 10964 10966 10970 10972 10976 10977 10979 10978 10977 10976 10976 10973 10970 10965 10961 10956 10953 10950 10949 10946 10943 10939
10997 10999 11000 11001 11000 10999 11000 10999 10999 10998 10995 10994 10992 10990 10986 10983 10979 10973 10966 10958 10950 10948 10949 10955 10956 10962 10962 10965 10967 10970 10972 10974 10975 10977 10977 10977 10977 10975 10973 10969 10964 10958 10955 10955 10952 10950 10948 10946 10942
10995 10997 10999 11000 10999 10999 10999 10998 10997 10996 10994 10991 10991 10989 10986 10982 10979 10974 10967 10961 10954 10953 10954 10956 10959 10961 10964 10964 10967 10970 10973 10974 10975 10977 10977 10978 10977 10974 10973 10969 10967 10961 10958 10957 10956 10954 10951 10948 10943
10994 10996 10998 10999 10999 10997 10997 10996 10995 10995 10994 10991 10989 10986 10984 10982 10978 10973 10968 10962 10959 10955 10955 10958 10961 10963 10964 10967 10968 10971 10972 10973 10975 10977 10978 10978 10976 10973 10972 10970 10968 10963 10962 10960 10958 10956 10953 10949 10944
10993 10995 10997 10996 10995 10994 10994 10993 10993 10992 10993 10992 10988 10985 10984 10980 10978 10974 10969 10963 10961 10958 10957 10958 10961 10963 10966 10967 10969 10969 10971 10971 10974 10975 10977 10978 10975 10973 10973 10969 10967 10965 10963 10960 10959 10957 10955 10951 10947
10992 10994 10994 10995 10995 10993 10992 10990 10991 10990 10990 10991 10987 10984 10982 10980 10977 10974 10971 10966 10961 10960 10959 10960 10960 10962 10965 10968 10969 10971 10970 10972 10975 10977 10979 10977 10975 10974 10973 10970 10968 10967 10967 10964 10962 10959 10956 10953 10949
10990 10992 10991 10991 10992 10992 10990 10990 10988 10988 10989 10989 10987 10984 10981 10979 10977 10975 10973 10968 10965 10961 10961 10961 10961 10962 10965 10968 10970 10970 10970 10973 10974 10975 10977 10977 10975 10975 10972 10969 10970 10970 10968 10967 10963 10961 10959 10955 10950
10989 10990 10989 10988 10988 10988 10988 10987 10986 10986 10985 10985 10985 10984 10979 10977 10976 10974 10973 10970 10966 10963 10961 10961 10961 10962 10966 10967 10970 10971 10969 10971 10974 10975 10977 10976 10975 10974 10972 10971 10971 10971 10970 10969 10966 10963 10960 10956 10952
10986 10987 10986 10987 10986 10985 10985 10984 10983 10982 10982 10982 10981 10981 10979 10976 10975 10974 10972 10970 10967 10964 10962 10962 10963 10964 10966 10969 10969 10972 10970 10973 10974 10975 10977 10976 10975 10975 10973 10971 10971 10970 10971 10971 10971 10965 10961 10957 10954
10981 10982 10981 10982 10981 10981 10982 10980 10979 10978 10977 10976 10977 10977 10976 10974 10973 10972 10972 10970 10968 10965 10963 10962 10964 10965 10966 10968 10968 10970 10971 10973 10974 10975 10976 10977 10976 10974 10974 10972 10970 10969 10969 10970 10969 10965 10962 10960 10956
10975 10975 10976 10977 10977 10976 10974 10976 10975 10973 10971 10971 10971 10972 10973 10971 10970 10970 10969 10969 10968 10965 10964 10963 10963 10965 10965 10967 10968 10970 10972 10973 10974 10975 10976 10976 10976 10975 10973 10972 10969 10968 10970 10970 10969 10965 10963 10962 10960
10968 10969 10969 10969 10969 10968 10967 10968 10968 10965 10965 10964 10966 10967 10968 10967 10967 10967 10966 10966 10966 10965 10964 10963 10963 10964 10965 10966 10969 10970 10971 10972 10973 10974 10974 10974 10973 10974 10972 10972 10969 10967 10969 10970 10968 10967 10966 10965 10964
10960 10961 10961 10962 10962 10960 10959 10959 10960 10960 10958 10957 10958 10959 10962 10962 10963 10963 10963 10964 10964 10963 10962 10962 10961 10961 10963 10964 10965 10968 10969 10970 10971 10972 10972 10972 10973 10974 10972 10971 10969 10967 10967 10969 10970 10969 10967 10967 10965
10952 10953 10953 10953 10952 10951 10948 10947 10947 10949 10950 10950 10949 10950 10952 10955 10957 10958 10960 10960 10960 10961 10961 10961 10960 10959 10960 10962 10964 10964 10967 10968 10969 10969 10969 10970 10971 10971 10970 10969 10970 10967 10967 10970 10970 10970 10971 10968 10966
10943 10944 10944 10944 10945 10942 10940 10935 10934 10936 10938 10940 10941 10942 10943 10947 10949 10952 10955 10956 10957 10958 10959 10960 10959 10958 10958 10959 10960 10961 10963 10965 10967 10967 10968 10968 10967 10969 10968 10967 10969 10965 10969 10971 10971 10971 10970 10968 10967
10935 10936 10937 10936 10935 10934 10932 10929 10926 10927 10927 10931 10932 10934 10936 10938 10941 10944 10947 10950 10952 10954 10955 10958 10957 10956 10957 10958 10959 10961 10962 10964 10966 10965 10963 10963 10965 10966 10965 10965 10966 10966 10969 10971 10972 10972 10969 10966 10966
10930 10930 10929 10928 10928 10926 10924 10925 10921 10919 10919 10921 10924 10927 10929 10931 10934 10937 10940 10944 10947 10949 10951 10955 10955 10954 10955 10957 10958 10959 10961 10962 10962 10963 10961 10962 10962 10962 10963 10963 10964 10966 10967 10970 10972 10972 10969 10966 10965
10927 10927 10925 10924 10923 10921 10919 10919 10918 10916 10914 10914 10916 10919 10921 10923 10926 10930 10934 10938 10941 10945 10948 10951 10953 10953 10954 10955 10957 10958 10960 10961 10961 10962 10963 10962 10961 10960 10962 10962 10962 10965 10965 10969 10970 10972 10971 10969 10967
10926 10925 10924 10921 10920 10917 10916 10916 10915 10913 10912 10910 10911 10911 10913 10917 10919 10923 10926 10930 10935 10939 10944 10948 10950 10952 10952 10952 10954 10955 10957 10959 10960 10960 10960 10960 10960 10959 10959 10958 10960 10962 10964 10966 10968 10971 10971 10971 10970
10923 10922 10922 10919 10916 10913 10912 10913 10910 10910 10909 10906 10907 10908 10908 10910 10915 10916 10919 10923 10928 10934 10938 10942 10946 10948 10950 10950 10952 10953 10956 10957 10958 10958 10958 10958 10958 10958 10956 10954 10956 10959 10962 10965 10966 10969 10970 10971 10972
10919 10918 10918 10917 10915 10910 10908 10906 10907 10906 10906 10904 10903 10902 10903 10905 10908 10911 10913 10917 10921 10926 10932 10936 10941 10944 10946 10947 10949 10951 10952 10954 10955 10956 10957 10957 10956 10955 10954 10953 10954 10956 10957 10961 10963 10966 10968 10970 10971
10916 10914 10914 10913 10912 10911 10905 10903 10901 10901 10901 10901 10901 10899 10898 10900 10901 10905 10907 10910 10915 10919 10925 10930 10934 10939 10942 10945 10946 10948 10949 10951 10953 10954 10956 10956 10954 10953 10952 10949 10950 10953 10955 10958 10961 10962 10964 10966 10967
10912 10911 10910 10909 10908 10908 10903 10901 10899 10895 10895 10896 10897 10896 10894 10894 10897 10899 10901 10904 10906 10912 10917 10922 10927 10932 10936 10940 10942 10944 10945 10949 10951 10953 10954 10954 10954 10953 10951 10950 10949 10951 10953 10955 10958 10960 10962 10963 10965
10906 10905 10905 10904 10903 10902 10899 10896 10894 10890 10889 10889 10891 10892 10891 10889 10888 10892 10895 10897 10901 10904 10909 10914 10919 10924 10929 10934 10937 10939 10941 10944 10947 10949 10950 10951 10951 10953 10952 10950 10949 10949 10950 10950 10954 10957 10960 10961 10963
10902 10900 10900 10898 10897 10896 10894 10891 10890 10888 10882 10879 10878 10883 10884 10885 10883 10883 10887 10889 10893 10897 10901 10905 10910 10916 10920 10925 10930 10933 10936 10940 10943 10945 10946 10947 10948 10949 10950 10949 10948 10948 10946 10946 10948 10953 10957 10958 10959
10894 10894 10893 10891 10890 10886 10886 10886 10884 10883 10879 10874 10870 10871 10874 10875 10876 10877 10879 10882 10884 10887 10892 10897 10902 10907 10911 10915 10922 10926 10930 10934 10937 10939 10942 10943 10944 10945 10946 10947 10946 10945 10945 10945 10946 10949 10953 10956 10957
10886 10885 10885 10883 10881 10879 10878 10877 10876 10876 10873 10870 10865 10860 10864 10866 10867 10867 10870 10872 10875 10876 10882 10888 10894 10897 10901 10907 10912 10918 10923 10927 10931 10934 10936 10939 10940 10942 10943 10944 10945 10944 10943 10943 10944 10946 10948 10952 10954
10878 10876 10874 10873 10872 10871 10868 10867 10868 10868 10866 10864 10860 10854 10854 10856 10858 10858 10858 10863 10865 10868 10871 10877 10885 10891 10895 10900 10904 10909 10915 10920 10925 10928 10931 10933 10936 10938 10940 10941 10942 10942 10941 10940 10941 10944 10946 10948 10950
10864 10865 10861 10860 10862 10863 10863 10854 10857 10859 10858 10855 10852 10848 10844 10845 10846 10849 10851 10853 10856 10858 10862 10868 10876 10883 10886 10890 10895 10900 10905 10912 10918 10923 10926 10928 10930 10933 10934 10936 10938 10940 10940 10940 10940 10942 10944 10946 10945